GW5248 Weather Reports


time (UTC)temp
F
wind
direction
speed
knots
gust
knots
rain 1hr
in
rain 24hr
in
rain mn
in
humidity
%
barometer
mb
20260507040718 65 0 0.0 0.0 0.00 0.00 0.00 86 1010.0
20260507040222 65 212 0.0 0.9 0.00 0.00 0.00 86 1010.0
20260507035720 65 325 0.9 1.7 0.00 0.00 0.04 86 1010.0
20260507035221 64 10 0.9 1.7 0.00 0.00 0.04 86 1010.0
20260507034720 64 5 0.9 1.7 0.00 0.00 0.04 86 1009.0
20260507034221 65 5 0.0 0.9 0.00 0.00 0.04 86 1009.0
20260507033718 65 306 1.7 4.3 0.00 0.00 0.04 86 1009.0
20260507033218 65 324 0.9 2.6 0.00 0.00 0.04 85 1009.0
20260507032719 65 319 1.7 3.5 0.00 0.00 0.04 85 1009.0
20260507032218 65 312 2.6 3.5 0.00 0.00 0.04 84 1009.0
20260507031719 66 308 1.7 3.5 0.00 0.00 0.04 83 1009.0
20260507031219 65 298 0.9 1.7 0.00 0.00 0.04 84 1009.0
20260507030720 65 343 0.9 2.6 0.00 0.00 0.04 84 1010.0
20260507030220 65 307 3.5 5.2 0.00 0.00 0.04 84 1009.0
20260507025719 64 295 1.7 3.5 0.00 0.00 0.04 85 1009.0
20260507025220 64 314 1.7 3.5 0.00 0.00 0.04 86 1010.0
20260507024718 64 231 0.0 1.7 0.00 0.00 0.04 85 1009.0
20260507024221 65 235 1.7 3.5 0.00 0.00 0.04 84 1009.0
20260507023720 65 318 0.0 1.7 0.00 0.00 0.04 83 1010.0
20260507023222 65 259 0.9 1.7 0.00 0.00 0.04 83 1010.0
20260507022722 65 265 0.9 2.6 0.00 0.00 0.04 84 1010.0
20260507022220 65 328 0.0 0.9 0.00 0.00 0.04 83 1010.0
20260507021721 66 259 0.0 1.7 0.00 0.00 0.04 83 1010.0
20260507021223 66 298 0.0 0.9 0.00 0.00 0.04 83 1010.0
20260507020722 66 0 0.0 0.0 0.00 0.00 0.04 82 1010.0
20260507020222 67 0 0.0 0.0 0.00 0.00 0.04 81 1010.0
20260507015720 67 0 0.0 0.0 0.00 0.00 0.04 80 1010.0
20260507015220 67 214 1.7 2.6 0.00 0.00 0.04 80 1010.0
20260507014720 67 0 0.0 0.0 0.00 0.00 0.04 80 1010.0
20260507014223 67 319 0.0 1.7 0.00 0.00 0.04 80 1010.0
20260507013720 67 160 0.9 1.7 0.00 0.00 0.04 79 1010.0
20260507013220 67 163 0.9 1.7 0.00 0.00 0.04 79 1010.0
20260507012721 68 52 0.9 1.7 0.00 0.00 0.04 79 1010.0
20260507012223 68 308 2.6 4.3 0.00 0.00 0.04 79 1010.0
20260507011722 68 307 0.9 1.7 0.00 0.00 0.04 79 1010.0
20260507011222 68 294 0.0 0.0 0.00 0.00 0.04 79 1010.0
20260507010722 68 318 1.7 3.5 0.00 0.00 0.04 79 1010.0
20260507010222 68 251 0.0 1.7 0.00 0.00 0.04 79 1010.0
20260507005722 68 152 0.0 1.7 0.00 0.00 0.04 78 1010.0
20260507005222 68 341 0.0 1.7 0.00 0.00 0.04 78 1010.0
20260507004720 68 266 1.7 2.6 0.00 0.00 0.04 78 1010.0
20260507004221 68 9 0.9 3.5 0.00 0.00 0.04 77 1010.0
20260507003718 68 298 1.7 3.5 0.00 0.00 0.04 77 1010.0
20260507003222 68 205 0.0 1.7 0.00 0.00 0.04 77 1010.0
20260507002721 68 210 0.9 1.7 0.00 0.00 0.04 77 1010.0
20260507002223 69 333 0.0 0.9 0.00 0.00 0.04 77 1010.0
20260507001720 69 295 0.0 0.9 0.00 0.00 0.04 76 1010.0
20260507001221 69 308 1.7 3.5 0.00 0.00 0.04 76 1009.0
20260507000721 69 292 1.7 3.5 0.00 0.00 0.04 76 1009.0
20260507000219 69 328 3.5 4.3 0.00 0.00 0.04 76 1009.0
20260506235722 69 301 1.7 2.6 0.00 0.00 0.04 76 1009.0
20260506235222 69 318 1.7 3.5 0.00 0.00 0.04 75 1009.0
20260506234720 69 273 0.9 1.7 0.00 0.00 0.04 75 1009.0
20260506234222 70 2 0.9 2.6 0.00 0.00 0.04 74 1009.0
20260506233720 70 307 2.6 4.3 0.00 0.00 0.04 74 1009.0
20260506233220 70 241 2.6 4.3 0.00 0.00 0.04 74 1009.0
20260506232722 70 1 3.5 6.1 0.00 0.00 0.04 73 1009.0
20260506232221 70 342 0.0 2.6 0.00 0.00 0.04 73 1009.0
20260506231720 70 335 1.7 3.5 0.00 0.00 0.04 72 1009.0
20260506231218 70 315 4.3 7.8 0.00 0.00 0.04 72 1009.0
20260506230718 71 293 1.7 3.5 0.00 0.00 0.04 72 1009.0
20260506230222 71 326 2.6 5.2 0.00 0.00 0.04 72 1009.0
20260506225720 71 347 2.6 5.2 0.00 0.00 0.04 71 1009.0
20260506225222 71 320 2.6 5.2 0.00 0.00 0.04 71 1009.0
20260506224719 71 336 2.6 4.3 0.00 0.00 0.04 71 1009.0
20260506224221 71 258 0.9 3.5 0.00 0.00 0.04 71 1009.0
20260506223720 71 359 1.7 3.5 0.00 0.00 0.04 71 1009.0
20260506223223 71 337 3.5 5.2 0.00 0.00 0.04 71 1009.0
20260506222722 71 327 2.6 4.3 0.00 0.00 0.04 71 1009.0
20260506222222 71 314 2.6 5.2 0.00 0.00 0.04 70 1009.0
20260506221720 71 329 3.5 6.1 0.00 0.00 0.04 70 1009.0
20260506221218 71 321 3.5 5.2 0.00 0.00 0.04 70 1009.0
20260506220720 71 326 3.5 6.1 0.00 0.00 0.04 70 1009.0
20260506220219 71 319 6.1 10.4 0.00 0.00 0.04 71 1009.0
20260506215720 71 327 6.1 10.4 0.00 0.00 0.04 71 1009.0
20260506215221 71 313 5.2 8.7 0.00 0.00 0.04 70 1009.0
20260506214721 71 311 6.1 12.2 0.00 0.00 0.04 70 1009.0
20260506214222 71 313 5.2 8.7 0.00 0.00 0.04 70 1009.0
20260506213718 71 320 7.0 12.2 0.00 0.00 0.04 70 1009.0
20260506213222 71 324 5.2 7.8 0.00 0.00 0.04 70 1009.0
20260506212718 71 311 6.1 11.3 0.00 0.00 0.04 70 1009.0
20260506212220 71 317 7.8 12.2 0.00 0.00 0.04 70 1009.0
20260506211721 71 317 7.8 12.2 0.00 0.00 0.04 70 1009.0
20260506211221 71 321 8.7 13.0 0.00 0.00 0.04 70 1009.0
20260506210722 71 311 7.0 9.6 0.00 0.00 0.04 70 1009.0
20260506210231 71 302 7.8 13.0 0.00 0.00 0.04 70 1009.0
20260506205722 71 320 7.0 9.6 0.00 0.00 0.04 70 1009.0
20260506205219 71 306 5.2 9.6 0.00 0.00 0.04 71 1009.0
20260506204720 71 314 7.0 11.3 0.00 0.00 0.04 70 1009.0
20260506204220 71 310 5.2 8.7 0.00 0.00 0.04 70 1009.0
20260506203721 71 320 7.8 12.2 0.00 0.00 0.04 70 1009.0
20260506203218 71 322 5.2 7.8 0.00 0.00 0.04 70 1009.0
20260506202723 71 311 7.8 13.9 0.00 0.00 0.04 70 1009.0
20260506202222 71 313 6.1 11.3 0.00 0.00 0.04 69 1009.0
20260506201720 71 322 6.1 9.6 0.00 0.00 0.04 69 1009.0
20260506201220 71 319 8.7 17.4 0.00 0.00 0.04 69 1009.0
20260506200720 72 324 8.7 13.9 0.00 0.00 0.04 68 1009.0
20260506200220 71 319 7.8 12.2 0.00 0.00 0.04 69 1008.0
20260506195722 72 318 8.7 13.0 0.00 0.00 0.04 69 1009.0
20260506195221 72 318 5.2 10.4 0.00 0.00 0.04 69 1009.0
20260506194720 71 316 10.4 15.6 0.00 0.00 0.04 69 1009.0
20260506194220 72 321 6.1 12.2 0.00 0.00 0.04 69 1009.0
20260506193723 72 317 6.1 9.6 0.00 0.00 0.04 69 1009.0
20260506193224 72 325 6.1 10.4 0.00 0.00 0.04 68 1009.0
20260506192719 72 319 9.6 13.0 0.00 0.00 0.04 68 1009.0
20260506192219 72 308 7.0 10.4 0.00 0.00 0.04 69 1009.0
20260506191721 72 315 7.8 11.3 0.00 0.00 0.04 68 1009.0
20260506191222 72 299 7.8 13.9 0.00 0.00 0.04 69 1010.0
20260506190719 72 311 7.8 10.4 0.00 0.00 0.04 68 1010.0
20260506190220 71 320 7.8 10.4 0.00 0.00 0.04 69 1010.0
20260506185723 71 322 7.0 9.6 0.00 0.00 0.04 70 1010.0
20260506185220 71 324 6.1 11.3 0.00 0.00 0.04 71 1010.0
20260506184720 71 317 7.0 10.4 0.00 0.00 0.04 71 1010.0
20260506184220 70 302 7.8 13.0 0.00 0.00 0.04 71 1010.0
20260506183720 70 297 7.8 14.8 0.00 0.00 0.04 73 1010.0
20260506183221 70 318 10.4 19.1 0.01 0.00 0.04 72 1010.0
20260506182720 69 295 7.0 13.0 0.00 0.00 0.04 73 1010.0
20260506182220 69 318 10.4 14.8 0.00 0.00 0.04 74 1010.0
20260506181720 68 309 5.2 9.6 0.00 0.00 0.04 76 1010.0
20260506181219 68 314 8.7 12.2 0.00 0.00 0.04 76 1010.0
20260506180720 69 319 9.6 13.0 0.00 0.00 0.04 75 1010.0
20260506180219 69 316 11.3 14.8 0.01 0.00 0.04 75 1010.0
20260506175721 68 295 7.0 13.0 0.00 0.00 0.04 77 1010.0
20260506175220 68 315 8.7 13.0 0.00 0.00 0.04 78 1011.0
20260506174721 68 313 5.2 10.4 0.00 0.00 0.04 77 1011.0
20260506174222 68 319 8.7 13.0 0.06 0.00 0.04 77 1010.0
20260506173719 68 298 7.8 13.0 0.01 0.00 0.03 77 1010.0
20260506173222 68 307 10.4 14.8 0.00 0.00 0.03 76 1010.0
20260506172721 69 315 6.1 11.3 0.00 0.00 0.03 77 1010.0
20260506172219 69 312 7.8 10.4 0.00 0.00 0.06 76 1011.0
20260506171719 68 302 6.1 9.6 0.00 0.00 0.05 76 1011.0
20260506171220 68 316 7.8 12.2 0.00 0.00 0.05 77 1011.0
20260506170723 68 314 10.4 13.0 0.02 0.00 0.05 76 1011.0
20260506170221 67 270 6.1 9.6 0.00 0.00 0.05 77 1011.0
20260506165722 67 279 7.8 13.0 0.00 0.00 0.05 76 1011.0
20260506165223 67 259 7.8 10.4 0.00 0.00 0.05 77 1011.0
20260506164720 67 305 5.2 7.8 0.00 0.00 0.05 78 1011.0
20260506164221 67 311 6.1 13.9 0.00 0.00 0.05 76 1011.0
20260506163720 67 317 9.6 14.8 0.01 0.00 0.03 76 1012.0
20260506163221 67 316 7.8 11.3 0.00 0.00 0.03 76 1011.0
20260506162723 68 318 10.4 16.5 0.03 0.00 0.03 75 1012.0
20260506162220 69 321 6.1 10.4 0.04 0.00 0.02 74 1012.0
20260506161722 69 318 6.1 9.6 0.09 0.00 0.01 70 1012.0
20260506161221 70 312 7.8 11.3 0.00 0.00 0.01 70 1012.0
20260506160720 71 315 8.7 18.2 0.00 0.00 0.01 68 1012.0
20260506160223 72 314 9.6 18.2 0.00 0.00 0.01 65 1012.0
20260506155720 72 319 7.0 9.6 0.00 0.00 0.01 64 1012.0
20260506155221 73 311 7.0 9.6 0.00 0.00 0.01 63 1012.0
20260506154720 73 313 7.8 15.6 0.02 0.00 0.01 64 1012.0
20260506154222 73 319 6.1 9.6 0.00 0.00 0.01 62 1012.0
20260506153719 73 318 9.6 14.8 0.02 0.00 0.01 61 1012.0
20260506153219 73 306 9.6 15.6 0.01 0.00 0.00 60 1012.0
20260506152722 73 317 10.4 13.9 0.02 0.00 0.00 60 1012.0
20260506152219 73 317 7.0 12.2 0.00 0.00 0.00 60 1012.0
20260506151721 73 316 6.1 8.7 0.00 0.00 0.00 60 1012.0
20260506151220 73 311 7.8 11.3 0.00 0.00 0.00 60 1012.0
20260506150719 72 323 9.6 13.0 0.00 0.00 0.00 61 1012.0
20260506150224 72 325 8.7 11.3 0.00 0.00 0.00 60 1012.0
20260506145726 72 317 9.6 12.2 0.00 0.00 0.00 60 1012.0
20260506145220 73 318 10.4 16.5 0.01 0.00 0.00 60 1012.0
20260506144720 73 305 7.8 12.2 0.00 0.00 0.00 60 1012.0
20260506144221 73 322 7.8 10.4 0.00 0.00 0.00 60 1012.0
20260506143721 73 290 7.0 13.0 0.00 0.00 0.00 61 1012.0
20260506143221 73 312 7.8 11.3 0.00 0.00 0.00 60 1012.0
20260506142720 74 311 7.8 10.4 0.00 0.00 0.00 59 1012.0
20260506142222 74 286 5.2 8.7 0.00 0.00 0.00 60 1012.0
20260506141720 73 314 7.8 10.4 0.00 0.00 0.00 61 1012.0
20260506141223 73 310 5.2 7.8 0.00 0.00 0.00 61 1012.0
20260506140719 73 312 7.8 16.5 0.00 0.00 0.00 60 1012.0
20260506140220 73 314 7.0 13.9 0.00 0.00 0.00 61 1012.0
20260506135720 72 306 6.1 11.3 0.00 0.00 0.00 61 1012.0
20260506135219 72 314 6.1 9.6 0.00 0.00 0.00 62 1012.0
20260506134721 72 313 6.1 9.6 0.00 0.00 0.00 62 1012.0
20260506134221 72 316 6.1 7.8 0.00 0.00 0.00 61 1012.0
20260506133721 72 315 8.7 12.2 0.00 0.00 0.00 61 1012.0
20260506133222 71 322 7.8 12.2 0.00 0.00 0.00 62 1012.0
20260506132721 70 313 7.8 12.2 0.00 0.00 0.00 63 1012.0
20260506132221 70 310 9.6 14.8 0.00 0.00 0.00 63 1012.0
20260506131720 69 325 7.8 12.2 0.00 0.00 0.00 65 1012.0
20260506131220 69 312 9.6 14.8 0.00 0.00 0.00 66 1012.0
20260506130719 69 297 6.1 13.9 0.00 0.00 0.00 66 1012.0
20260506130221 69 320 8.7 13.9 0.00 0.00 0.00 66 1012.0
20260506125720 69 319 8.7 11.3 0.00 0.00 0.00 66 1012.0
20260506125226 68 315 7.8 10.4 0.00 0.00 0.00 67 1013.0
20260506124720 68 318 6.1 8.7 0.00 0.00 0.00 68 1012.0
20260506124218 68 317 7.8 10.4 0.00 0.00 0.00 68 1012.0
20260506123721 67 310 7.8 12.2 0.00 0.00 0.00 68 1012.0
20260506123220 67 314 8.7 13.0 0.00 0.00 0.00 68 1012.0
20260506122722 67 321 5.2 8.7 0.00 0.00 0.00 68 1012.0
20260506122220 67 309 8.7 11.3 0.00 0.00 0.00 68 1012.0
20260506121720 67 311 8.7 12.2 0.00 0.00 0.00 68 1012.0
20260506121220 67 318 6.1 8.7 0.00 0.00 0.00 68 1012.0
20260506120720 67 313 8.7 12.2 0.00 0.00 0.00 69 1012.0
20260506120223 67 296 9.6 16.5 0.00 0.00 0.00 68 1012.0
20260506115722 67 296 5.2 8.7 0.00 0.00 0.00 69 1012.0
20260506115220 67 305 6.1 10.4 0.00 0.00 0.00 68 1012.0
20260506114722 66 315 6.1 11.3 0.00 0.00 0.00 69 1012.0
20260506114218 66 308 7.0 11.3 0.00 0.00 0.00 70 1012.0
20260506113719 66 312 6.1 11.3 0.00 0.00 0.00 70 1012.0
20260506113218 66 278 5.2 8.7 0.00 0.00 0.00 70 1012.0
20260506112722 66 311 6.1 8.7 0.00 0.00 0.00 70 1012.0
20260506112223 66 307 6.1 8.7 0.00 0.00 0.00 70 1012.0
20260506111720 66 277 4.3 7.8 0.00 0.00 0.00 69 1012.0
20260506111219 66 261 5.2 8.7 0.00 0.00 0.00 69 1012.0
20260506110720 66 303 4.3 10.4 0.00 0.00 0.00 70 1012.0
20260506110220 65 288 4.3 7.8 0.00 0.00 0.00 70 1012.0
20260506105722 65 275 4.3 7.0 0.00 0.00 0.00 71 1012.0
20260506105220 64 298 5.2 7.0 0.00 0.00 0.00 72 1012.0
20260506104720 64 278 2.6 4.3 0.00 0.00 0.00 72 1012.0
20260506104222 64 266 4.3 6.1 0.00 0.00 0.00 73 1012.0
20260506103723 64 281 5.2 9.6 0.00 0.00 0.00 73 1012.0
20260506103223 64 275 5.2 11.3 0.00 0.00 0.00 73 1012.0
20260506102718 64 288 3.5 7.0 0.00 0.00 0.00 73 1012.0
20260506102222 64 305 5.2 9.6 0.00 0.00 0.00 73 1012.0
20260506101722 64 316 5.2 7.0 0.00 0.00 0.00 72 1012.0
20260506101222 64 300 4.3 7.8 0.00 0.00 0.00 72 1012.0
20260506100720 64 313 5.2 9.6 0.00 0.00 0.00 73 1012.0
20260506100221 64 262 5.2 8.7 0.00 0.00 0.00 73 1012.0
20260506095720 64 266 6.1 7.8 0.00 0.00 0.00 73 1012.0
20260506095222 64 266 7.8 11.3 0.00 0.00 0.00 72 1012.0
20260506094720 64 266 4.3 8.7 0.00 0.00 0.00 73 1012.0
20260506091720 64 310 5.2 14.8 0.00 0.00 0.00 71 1012.0
20260506091221 64 256 5.2 11.3 0.00 0.00 0.00 72 1012.0
20260506090719 64 268 6.1 9.6 0.00 0.00 0.00 71 1012.0
20260506090220 64 305 5.2 7.8 0.00 0.00 0.00 71 1012.0
20260506085720 64 275 5.2 7.0 0.00 0.00 0.00 71 1012.0
20260506085220 64 286 4.3 7.0 0.00 0.00 0.00 71 1012.0
20260506084722 65 278 5.2 8.7 0.00 0.00 0.00 71 1012.0
20260506084220 65 302 5.2 9.6 0.00 0.00 0.00 71 1012.0
20260506083721 65 267 6.1 9.6 0.00 0.00 0.00 71 1012.0
20260506083222 65 276 6.1 10.4 0.00 0.00 0.00 71 1012.0
20260506082720 65 292 5.2 7.8 0.00 0.00 0.00 71 1012.0
20260506082218 65 294 4.3 9.6 0.00 0.00 0.00 71 1012.0
20260506081720 65 289 4.3 7.8 0.00 0.00 0.00 71 1012.0
20260506081222 65 298 5.2 9.6 0.00 0.00 0.00 71 1012.0
20260506080720 65 310 5.2 9.6 0.00 0.00 0.00 71 1012.0
20260506080224 65 309 5.2 8.7 0.00 0.00 0.00 71 1012.0
20260506073221 65 281 5.2 7.8 0.00 0.00 0.00 73 1012.0
20260506072720 65 310 5.2 7.8 0.00 0.00 0.00 74 1012.0
20260506072222 65 315 4.3 7.0 0.00 0.00 0.00 74 1012.0
20260506071721 65 303 4.3 6.1 0.00 0.00 0.00 74 1012.0
20260506070733 65 314 3.5 6.1 0.00 0.00 0.00 75 1012.0
20260506070222 65 295 4.3 7.0 0.00 0.00 0.00 75 1012.0
20260506062219 65 270 3.5 7.8 0.00 0.00 0.00 75 1013.0
20260506061720 65 273 4.3 7.8 0.00 0.00 0.00 75 1013.0
20260506061224 65 269 5.2 6.1 0.00 0.00 0.00 75 1013.0
20260506060720 65 275 4.3 7.0 0.00 0.00 0.00 75 1013.0
20260506060220 65 256 7.0 7.8 0.00 0.00 0.00 76 1013.0